Powrót do katalogu

STARLINK-35368

AktywnyŁącznośćVLEO
NORAD 65830·PAYLOAD·🇺🇸 United States

Wystrzelony Sep 29, 2025 z Vandenberg Space Force Base

Loading…

Następne Przeloty (najbliższe 24 godziny)

TLE

ŚwieżeSource: CelesTrak SupGP

Epoka: Sep 14, 2026, 20:50 UTC

1 65830C 25221H   26257.86854167  .00020716  00000+0  61238-3 0  2576
2 65830  53.1570 288.0895 0001104  82.5783 120.6975 15.34363861    15

Śledź STARLINK-35368 w czasie rzeczywistym z AllMySat

Download on the App Store